Temperature
9 9 9 9 9 9 9 9 9 8 9 8 8 9 8 8 8 8 8 8 8 9 9 9 9 8 8 8 8 7 7 7 7 7 7 8 8 8 8 8 8 8 8
9 9 9 9 9 9 9 9 8 8 8 8 8 8 8 8 8 8 8 8 8 8 8 8 8 8 8 8 7 7 7 7 7 7 7 7 7 7 8 8 8 8 8
9 9 9 9 9 9 9 9 9 9 8 8 8 8 8 8 8 8 8 8 8 8 8 8 8 8 8 7 7 7 7 7 6 6 6 6 6 7 7 7 7 7 8
9 9 9 9 9 9 9 9 9 9 8 8 8 9 9 9 9 8 8 8 8 8 8 8 8 8 7 7 7 6 6 6 6 6 6 6 6 6 6 6 6 7 7
9 9 9 9 9 9 9 9 9 8 8 8 9 9 9 9 9 8 8 8 7 7 7 7 7 7 7 7 6 6 6 6 5 5 5 5 5 5 6 6 6 6 6
9 9 9 9 9 9 9 9 8 8 8 8 8 9 9 9 9 8 8 7 7 7 7 6 6 6 6 6 6 6 5 5 5 5 5 5 5 5 5 5 5 5 5
9 9 9 9 9 9 9 9 8 8 8 8 8 9 9 8 8 7 7 7 7 6 6 6 5 5 5 5 6 5 5 4 4 4 4 4 4 4 4 4 4 4 5
10 10 10 9 9 9 9 9 8 8 8 8 7 7 7 8 7 7 7 7 6 6 6 5 5 5 5 5 5 5 5 4 4 3 3 3 3 3 4 4 4 4 4
10 10 10 10 9 9 9 9 8 8 8 7 7 6 6 5 6 6 6 6 5 5 5 5 5 5 5 5 4 4 4 4 3 3 3 2 3 3 3 3 3 3 3
10 10 10 10 9 9 9 9 8 8 8 7 7 6 5 5 4 4 5 5 5 5 4 4 4 4 4 4 4 4 4 3 3 2 2 2 2 2 2 2 2 2 2
10 10 10 10 9 9 9 9 8 8 7 7 7 6 6 5 4 3 4 5 5 5 4 4 4 4 4 3 3 3 3 3 2 2 2 2 1 1 1 1 1 2 2
10 10 10 10 9 9 9 8 8 8 7 7 6 6 5 5 4 3 3 3 4 4 4 4 4 3 3 2 2 2 2 2 1 1 1 1 1 1 1 1 0 1 1
10 10 10 10 9 9 9 8 8 7 7 7 6 6 5 5 4 3 3 3 3 3 4 4 3 2 2 2 1 1 1 1 1 0 -0 -0 -0 -0 -0 -0 -0 -0 -0
11 10 10 10 9 9 8 8 8 7 7 6 6 5 5 5 4 3 3 2 1 2 2 3 3 2 2 1 1 0 0 -0 -0 -1 -1 -1 -1 -1 -1 -1 -1 -1 -1
10 10 10 9 9 9 8 8 7 7 6 6 6 5 5 4 4 3 3 2 1 -0 0 2 2 2 1 0 0 -0 -1 -1 -1 -1 -1 -2 -2 -2 -2 -2 -2 -2 -2
10 10 9 9 9 8 8 7 7 7 6 6 5 5 4 4 3 3 2 2 1 -0 -1 0 1 0 0 -0 -0 -1 -1 -1 -1 -2 -2 -2 -2 -2 -2 -2 -3 -2 -2
10 9 9 9 8 8 8 7 7 6 6 5 5 4 4 3 3 2 2 1 1 0 -1 -0 -0 -0 -1 -1 -1 -1 -2 -2 -2 -2 -2 -3 -3 -3 -3 -3 -3 -3 -3
9 9 9 8 8 8 7 7 6 6 5 5 4 4 3 3 2 2 1 1 0 -0 -1 -1 -1 -1 -2 -2 -2 -2 -2 -3 -3 -3 -3 -3 -3 -3 -3 -3 -3 -4 -4
9 9 8 8 8 7 7 6 6 5 5 4 4 3 3 2 2 1 1 0 -0 -1 -1 -2 -2 -2 -2 -3 -3 -3 -3 -3 -3 -4 -4 -4 -4 -4 -4 -4 -4 -4 -4
8 8 8 8 7 7 6 6 5 4 4 3 3 2 2 1 1 1 0 -0 -1 -1 -2 -2 -3 -3 -3 -3 -4 -4 -4 -4 -4 -4 -4 -4 -4 -4 -4 -4 -4 -4 -4
8 8 7 7 7 6 6 5 4 4 3 3 2 2 1 1 1 0 -0 -1 -1 -2 -2 -3 -3 -4 -4 -4 -4 -4 -5 -4 -4 -4 -4 -4 -4 -4 -4 -4 -4 -4 -5
7 7 7 6 6 6 5 4 4 3 2 2 2 1 1 0 -0 -1 -1 -2 -2 -3 -3 -3 -4 -4 -4 -4 -4 -5 -5 -5 -5 -5 -5 -5 -5 -5 -5 -5 -5 -5 -5
7 6 6 6 5 5 4 4 3 2 2 1 1 0 0 -0 -1 -1 -2 -2 -2 -3 -3 -4 -4 -4 -5 -5 -5 -5 -5 -5 -5 -5 -6 -6 -5 -5 -5 -5 -5 -5 -5
6 6 5 5 5 4 4 3 2 2 1 1 0 -0 -1 -1 -1 -2 -2 -3 -3 -3 -4 -4 -5 -5 -5 -5 -5 -5 -5 -5 -5 -5 -6 -6 -6 -5 -5 -5 -5 -5 -6
5 5 4 4 4 3 3 2 1 1 0 0 -0 -1 -2 -2 -2 -3 -3 -4 -4 -4 -4 -5 -5 -5 -5 -5 -5 -5 -6 -6 -6 -6 -6 -6 -6 -6 -6 -6 -5 -6 -6
4 4 4 3 3 2 2 1 1 -0 -0 -1 -1 -2 -2 -3 -3 -4 -4 -4 -5 -5 -5 -5 -5 -5 -6 -6 -6 -6 -6 -6 -6 -6 -6 -7 -7 -7 -7 -6 -6 -6 -6
Wind_Speed
3 3 3 3 3 2 1 3 5 5 5 5 6 7 7 7 8 7 4 5 4 5 8 9 10 10 11 11 11 11 12 12 12 13 13 13 14 14 14 14 14 15 15
5 3 2 2 2 1 2 3 4 4 4 4 4 7 7 7 8 9 7 4 4 4 5 7 9 10 10 10 11 11 11 12 12 13 13 14 14 15 15 15 16 16 16
6 4 2 2 2 1 2 3 4 4 4 3 4 6 6 7 8 8 8 5 2 2 3 5 7 8 9 10 10 11 11 12 12 13 14 14 15 15 16 16 16 17 17
7 5 2 2 2 0 1 1 1 2 3 4 4 4 5 7 7 7 7 6 3 2 1 3 5 7 8 9 11 11 12 12 13 14 15 15 16 16 17 17 17 18 18
9 6 3 2 1 1 1 1 1 1 3 4 4 5 4 4 4 5 4 3 1 1 2 3 4 6 8 9 11 12 13 13 14 15 16 16 17 17 18 18 18 19 19
8 6 3 2 2 1 0 1 1 2 2 2 4 6 6 5 3 2 2 3 1 2 2 4 4 6 7 10 12 13 14 14 15 16 16 17 17 18 18 19 19 19 20
8 6 3 3 2 2 1 0 1 2 2 2 3 5 5 5 2 1 1 2 3 4 3 5 5 5 6 10 12 14 14 15 16 16 17 17 18 18 19 19 20 20 20
9 7 4 3 3 2 1 1 1 1 2 2 1 3 5 5 4 2 2 1 3 4 4 6 6 7 8 9 10 13 14 15 17 17 18 18 19 19 20 20 20 21 21
9 8 6 4 3 3 2 2 2 1 1 2 0 1 1 3 4 4 3 2 3 3 3 6 7 8 9 9 9 10 13 15 17 18 19 19 20 20 21 21 21 22 22
9 9 7 6 4 3 3 2 2 2 2 1 1 1 2 2 1 4 5 4 4 5 5 4 6 8 10 10 10 11 14 15 17 19 20 20 21 21 22 22 22 22 23
8 9 8 6 4 3 3 3 2 2 2 2 2 2 2 2 3 4 6 5 5 5 5 4 5 8 10 10 9 11 14 16 18 19 20 21 21 22 22 22 23 23 23
5 8 8 6 5 4 4 3 3 3 3 3 2 3 3 3 3 4 5 6 6 5 6 5 5 7 9 10 10 12 14 17 19 21 21 21 22 23 23 23 24 24 24
5 8 7 6 5 5 5 4 3 4 4 3 4 4 4 4 4 4 5 6 7 5 5 5 4 7 9 9 10 13 15 18 21 22 22 22 23 23 24 24 24 25 25
7 8 8 7 6 6 6 5 3 4 4 5 5 5 4 5 4 4 5 5 7 6 5 6 4 5 7 9 11 14 14 19 22 22 23 24 24 24 24 24 25 25 25
6 8 8 7 7 6 6 5 4 5 4 5 5 6 5 5 5 5 5 5 5 8 8 6 4 4 8 12 15 14 14 18 22 23 24 24 24 25 25 25 25 25 25
7 9 8 7 6 6 6 5 5 5 5 5 5 6 6 6 5 5 5 6 6 8 10 6 5 6 9 13 18 17 15 22 23 24 25 25 25 25 25 26 26 26 26
8 9 8 7 7 6 6 5 5 6 6 6 6 7 8 7 6 6 6 6 7 7 13 11 6 7 8 9 11 14 16 16 17 23 25 25 26 26 26 26 26 26 27
8 8 7 7 7 6 6 6 6 6 6 7 7 7 8 7 7 7 6 7 8 8 10 14 9 7 8 8 8 9 12 16 15 21 24 25 25 25 26 26 26 26 27
7 7 7 7 7 6 6 6 6 6 6 7 7 7 8 8 9 7 8 8 7 8 8 10 11 7 7 8 9 10 11 9 14 19 22 23 23 24 25 25 26 26 26
7 7 7 7 6 6 6 6 6 6 6 7 7 8 8 9 10 9 9 9 8 8 8 9 11 9 8 8 8 8 9 7 9 12 17 20 22 24 24 25 26 26 26
7 6 6 5 5 5 6 6 6 6 7 7 8 8 9 11 14 13 10 8 7 8 8 9 11 10 9 7 7 7 10 8 8 8 8 9 10 10 13 20 23 25 26
6 6 6 6 6 6 8 10 8 6 7 8 9 9 9 11 15 19 21 20 15 11 9 10 11 11 11 9 8 9 9 10 9 5 6 8 7 8 8 11 20 25 26
6 6 6 6 6 7 10 11 11 7 7 8 8 9 10 10 14 10 15 19 18 21 20 14 12 13 12 10 10 11 10 11 12 7 7 10 7 9 8 14 22 24 25
5 5 5 5 5 6 9 11 11 7 7 8 9 9 10 10 11 12 9 9 10 11 14 12 11 12 12 11 11 12 13 12 11 8 7 10 8 7 9 8 19 22 23
4 4 4 5 5 6 9 11 10 5 6 8 9 9 10 10 17 20 12 10 11 10 16 21 22 21 24 25 19 10 9 10 12 7 5 6 6 6 6 7 12 17 18
4 3 4 4 5 6 9 10 10 5 6 7 7 8 13 15 19 20 12 10 12 11 10 11 13 16 15 16 21 12 7 9 10 7 3 3 4 4 5 4 4 6 10
Wind_Direction
153 166 209 196 226 250 284 298 298 307 313 320 328 322 315 313 309 307 285 232 244 295 313 317 318 317 317 318 319 319 320 320 319 319 318 318 317 315 310 305 302 297 293
168 182 224 211 227 245 276 289 303 321 316 324 316 304 307 315 315 319 317 286 257 279 306 321 325 325 323 322 322 322 322 320 318 318 318 317 315 313 313 311 307 303 299
180 191 214 208 212 231 296 320 332 333 324 322 315 324 331 321 313 314 322 325 306 271 289 320 331 331 329 328 326 325 324 323 320 318 316 314 313 312 310 308 307 306 302
185 191 192 202 200 176 347 342 330 340 333 337 334 325 317 310 310 316 321 323 358 42 338 301 316 323 323 325 325 324 323 321 318 316 314 313 312 310 308 306 304 303 301
187 177 176 182 148 104 45 335 339 358 340 332 320 309 303 299 297 307 321 335 10 357 321 277 279 299 310 317 320 320 318 317 316 315 313 311 309 307 305 303 302 300 298
177 166 163 153 119 110 106 316 328 346 327 322 324 310 292 277 262 265 312 334 320 301 314 315 294 292 296 310 316 317 316 316 316 315 313 311 309 306 304 301 300 298 297
170 160 147 143 127 139 161 43 38 359 336 353 350 321 305 287 241 161 4 350 332 318 309 305 301 311 317 311 312 312 314 315 315 315 314 312 310 307 304 302 300 298 296
164 159 153 152 140 139 113 79 75 28 333 12 26 345 337 338 354 346 325 299 301 318 325 315 314 315 314 309 307 309 311 312 314 314 313 312 310 308 306 304 302 299 297
165 160 160 148 146 147 158 169 144 149 272 309 63 125 1 301 318 311 301 298 302 307 301 304 305 308 308 304 303 305 306 309 311 312 312 311 310 308 307 305 303 302 301
163 162 165 160 153 152 162 177 161 169 170 254 298 217 209 216 275 308 311 310 319 304 291 289 294 297 295 294 294 299 302 305 308 310 310 310 309 308 307 306 304 302 301
163 166 168 164 162 162 167 169 167 182 187 206 222 244 262 273 233 239 282 298 305 288 289 282 282 284 284 282 281 288 296 302 305 306 307 307 307 307 306 305 304 302 300
168 168 169 170 170 167 170 174 183 202 214 222 226 222 218 228 242 244 263 286 290 285 288 273 268 270 272 272 276 286 292 298 301 303 303 304 304 304 304 303 301 300 298
175 179 171 175 174 174 175 179 189 210 216 222 228 233 232 234 237 243 263 280 286 290 284 276 260 271 273 275 277 284 290 296 298 299 300 300 301 301 300 300 299 298 297
177 172 171 174 178 178 180 183 194 213 213 221 232 235 238 242 239 237 244 267 290 290 278 274 284 274 288 293 289 287 286 293 295 297 298 298 298 298 298 298 297 297 296
163 162 166 174 180 180 181 184 204 215 217 224 230 235 239 242 240 239 238 231 249 282 286 273 280 287 303 297 294 288 281 290 295 296 297 297 297 297 297 297 295 294 294
156 160 168 174 179 183 189 194 207 217 222 231 229 234 242 244 244 240 238 239 233 250 273 268 268 281 292 294 295 298 294 296 296 296 296 296 296 296 296 296 295 294 293
160 166 172 176 183 191 195 202 213 218 227 238 240 240 245 245 247 245 242 242 243 245 268 277 266 275 281 285 293 293 294 291 290 294 295 295 296 297 297 297 296 295 294
163 167 170 178 188 194 199 207 220 225 231 240 244 246 251 253 252 249 247 246 247 246 260 278 281 276 273 278 281 283 290 289 286 290 292 293 294 296 297 297 296 295 295
164 168 173 185 195 199 204 212 219 229 235 242 245 248 253 254 257 255 252 253 254 261 259 274 283 279 276 280 282 281 277 277 282 286 289 290 291 293 295 297 297 297 297
169 177 184 190 197 202 208 216 223 233 242 248 250 251 253 251 254 255 258 256 259 264 266 273 280 283 280 276 277 283 286 275 278 284 285 286 286 290 293 295 297 298 297
174 178 183 193 202 209 216 219 223 233 243 253 256 256 257 259 263 266 267 261 258 262 268 274 279 284 283 283 278 279 285 285 275 272 275 274 279 277 283 288 292 293 294
177 181 192 200 212 223 231 233 232 232 241 250 259 263 265 266 270 275 277 276 272 268 269 270 277 277 278 276 279 280 283 288 287 257 261 273 270 274 274 275 283 289 293
182 192 200 205 219 229 236 245 246 242 242 250 257 264 272 274 277 270 275 278 278 277 276 276 275 274 277 275 275 278 274 276 279 271 276 280 268 269 272 279 288 292 295
190 200 209 215 226 240 245 252 257 250 248 252 256 260 264 267 269 275 269 268 264 269 273 276 270 272 273 271 266 271 274 276 274 267 260 277 275 267 275 278 287 292 296
199 208 213 220 232 249 252 259 264 252 253 257 260 263 268 269 278 284 283 276 274 271 278 280 281 283 286 289 289 286 281 285 287 278 242 255 272 278 274 272 279 291 300
204 212 227 232 239 251 262 266 269 256 261 267 268 267 274 281 286 289 285 279 280 278 276 279 280 284 285 285 288 280 273 281 286 287 259 261 276 291 288 269 275 298 304
Height
1553 1554 1554 1554 1554 1555 1554 1554 1553 1553 1552 1551 1550 1549 1548 1547 1546 1545 1544 1542 1540 1539 1537 1536 1535 1534 1533 1532 1531 1531 1530 1529 1528 1528 1527 1526 1526 1525 1525 1524 1524 1524 1523
1551 1552 1553 1553 1553 1553 1553 1552 1552 1551 1550 1549 1548 1547 1546 1545 1544 1543 1541 1539 1538 1536 1535 1533 1532 1531 1530 1529 1528 1527 1526 1525 1525 1524 1523 1522 1522 1521 1520 1520 1520 1519 1519
1549 1550 1551 1551 1552 1551 1551 1551 1550 1549 1548 1547 1546 1545 1544 1542 1541 1540 1538 1537 1535 1534 1532 1531 1530 1528 1527 1526 1525 1524 1523 1522 1521 1520 1519 1518 1517 1517 1516 1515 1515 1514 1514
1547 1548 1549 1549 1550 1549 1549 1549 1548 1547 1546 1545 1543 1542 1541 1539 1538 1537 1535 1534 1533 1531 1530 1528 1527 1526 1525 1523 1522 1521 1520 1518 1517 1516 1515 1514 1513 1512 1511 1510 1510 1509 1508
1545 1546 1547 1547 1547 1547 1547 1546 1545 1544 1543 1542 1540 1539 1537 1536 1535 1533 1533 1532 1531 1529 1528 1526 1525 1523 1522 1521 1519 1518 1516 1515 1513 1512 1511 1509 1508 1507 1506 1505 1504 1504 1503
1542 1544 1544 1545 1545 1545 1545 1544 1543 1542 1541 1539 1538 1536 1535 1533 1532 1531 1531 1530 1529 1527 1526 1524 1522 1521 1519 1518 1516 1514 1513 1511 1509 1508 1506 1505 1503 1502 1501 1500 1499 1498 1497
1540 1541 1542 1542 1542 1542 1542 1542 1541 1540 1539 1537 1535 1533 1532 1531 1529 1529 1529 1528 1527 1525 1524 1522 1520 1518 1516 1514 1512 1510 1509 1507 1505 1503 1502 1500 1498 1497 1496 1495 1494 1493 1492
1537 1538 1539 1539 1540 1540 1540 1539 1539 1538 1537 1535 1534 1531 1529 1529 1528 1527 1526 1525 1524 1523 1521 1519 1517 1515 1513 1511 1508 1506 1504 1502 1501 1499 1497 1495 1493 1492 1491 1489 1488 1487 1486
1533 1535 1536 1536 1537 1537 1537 1537 1536 1535 1534 1534 1532 1532 1530 1527 1526 1524 1523 1522 1521 1519 1518 1516 1514 1512 1509 1507 1504 1502 1500 1498 1496 1494 1492 1490 1488 1486 1485 1483 1482 1480 1479
1530 1531 1532 1533 1534 1534 1534 1534 1533 1533 1532 1531 1530 1529 1529 1527 1525 1521 1519 1518 1517 1515 1514 1512 1510 1507 1505 1502 1500 1498 1495 1493 1491 1488 1486 1484 1482 1480 1479 1477 1475 1474 1472
1526 1528 1529 1530 1531 1531 1531 1531 1530 1530 1529 1528 1527 1526 1525 1524 1522 1520 1515 1513 1512 1510 1509 1507 1505 1502 1500 1498 1495 1493 1491 1488 1486 1483 1481 1478 1476 1474 1472 1470 1468 1466 1465
1522 1524 1525 1526 1527 1527 1528 1527 1527 1526 1525 1525 1524 1523 1522 1520 1519 1517 1512 1508 1505 1504 1503 1501 1499 1497 1495 1493 1490 1488 1486 1483 1480 1478 1475 1472 1470 1467 1465 1463 1461 1459 1458
1518 1520 1521 1522 1523 1524 1524 1524 1523 1522 1522 1521 1520 1519 1518 1516 1515 1513 1510 1505 1501 1498 1496 1495 1494 1492 1490 1488 1485 1483 1480 1477 1475 1472 1469 1466 1463 1461 1458 1456 1454 1452 1450
1513 1515 1517 1518 1519 1519 1520 1519 1519 1518 1517 1516 1515 1514 1513 1512 1510 1508 1506 1502 1496 1492 1490 1488 1487 1486 1485 1482 1480 1477 1474 1471 1468 1465 1463 1460 1457 1454 1452 1449 1447 1445 1443
1509 1511 1513 1514 1515 1515 1515 1515 1514 1514 1513 1512 1511 1509 1508 1506 1505 1503 1501 1499 1496 1488 1482 1481 1481 1480 1479 1476 1474 1470 1467 1465 1462 1459 1456 1453 1451 1448 1445 1443 1440 1438 1436
1505 1507 1508 1509 1510 1510 1510 1510 1510 1509 1508 1507 1506 1504 1502 1501 1499 1497 1495 1493 1491 1486 1478 1474 1475 1474 1472 1469 1467 1464 1461 1458 1455 1452 1449 1447 1444 1441 1438 1436 1433 1430 1428
1500 1502 1503 1505 1505 1505 1505 1505 1504 1504 1502 1501 1500 1498 1497 1495 1493 1491 1489 1487 1484 1481 1474 1467 1468 1467 1465 1462 1460 1457 1454 1451 1448 1445 1442 1440 1437 1434 1432 1429 1426 1423 1420
1496 1497 1499 1500 1500 1500 1500 1500 1499 1498 1497 1495 1494 1492 1490 1489 1486 1485 1482 1479 1477 1474 1470 1462 1460 1459 1457 1455 1452 1449 1447 1444 1441 1438 1435 1433 1430 1427 1425 1422 1419 1416 1413
1491 1492 1493 1494 1494 1495 1494 1494 1493 1492 1491 1489 1488 1486 1484 1482 1479 1477 1475 1472 1470 1467 1464 1458 1452 1451 1449 1448 1445 1441 1439 1436 1434 1431 1428 1426 1423 1420 1418 1415 1412 1409 1406
1486 1487 1488 1488 1489 1489 1488 1488 1487 1485 1484 1483 1481 1479 1477 1475 1473 1470 1467 1465 1462 1459 1456 1452 1447 1444 1441 1440 1438 1434 1430 1428 1426 1423 1421 1418 1416 1413 1411 1408 1405 1401 1398
1480 1482 1482 1483 1483 1483 1482 1482 1480 1479 1477 1475 1474 1472 1470 1468 1466 1463 1460 1457 1455 1452 1449 1445 1440 1437 1434 1433 1431 1428 1424 1420 1417 1416 1412 1410 1408 1405 1403 1400 1397 1393 1390
1475 1476 1477 1477 1477 1477 1477 1475 1474 1472 1470 1468 1466 1464 1462 1460 1458 1456 1453 1451 1449 1446 1442 1438 1434 1430 1427 1426 1423 1421 1417 1413 1408 1408 1405 1401 1400 1397 1395 1392 1389 1387 1384
1470 1470 1471 1471 1471 1471 1470 1469 1467 1465 1463 1461 1458 1456 1454 1452 1450 1447 1445 1443 1440 1438 1436 1433 1427 1423 1421 1419 1417 1413 1410 1406 1402 1400 1398 1392 1391 1389 1387 1385 1383 1380 1377
1464 1465 1465 1465 1465 1465 1464 1463 1461 1458 1455 1453 1451 1449 1446 1444 1442 1440 1436 1433 1431 1429 1427 1424 1420 1416 1414 1412 1409 1406 1402 1398 1394 1393 1392 1386 1383 1382 1380 1377 1376 1373 1370
1459 1459 1459 1459 1459 1458 1458 1456 1454 1451 1448 1446 1444 1442 1439 1436 1435 1433 1429 1425 1421 1419 1418 1415 1413 1410 1407 1405 1403 1399 1395 1392 1387 1385 1384 1381 1377 1374 1372 1370 1369 1367 1364
1454 1454 1454 1454 1453 1452 1451 1450 1448 1444 1441 1438 1436 1434 1432 1429 1427 1425 1422 1418 1413 1410 1408 1405 1403 1401 1399 1396 1395 1393 1390 1386 1382 1378 1377 1376 1372 1370 1365 1362 1362 1360 1358